QPF
0.00 0.00 0.00 0.00 0.00 0.00 0.00 0.00 0.00 0.00 0.00 0.00 0.00 0.00 0.00 0.00 0.00 0.00 0.00 0.00 0.00 0.00 0.00 0.00 0.00 0.00 0.00 0.00 0.00 0.00 0.00 0.00 0.00 0.00 0.00 0.00 0.00 0.00 0.00 0.00 0.00 0.00 0.00 0.00
0.00 0.00 0.00 0.00 0.00 0.00 0.00 0.00 0.00 0.00 0.00 0.00 0.00 0.00 0.00 0.00 0.00 0.00 0.00 0.00 0.00 0.00 0.00 0.00 0.00 0.00 0.00 0.00 0.00 0.00 0.00 0.00 0.00 0.00 0.00 0.00 0.00 0.00 0.00 0.00 0.00 0.00 0.00 0.00
0.00 0.00 0.00 0.00 0.00 0.00 0.00 0.00 0.00 0.00 0.00 0.00 0.00 0.00 0.00 0.00 0.00 0.00 0.00 0.00 0.00 0.00 0.00 0.00 0.00 0.00 0.00 0.00 0.00 0.00 0.00 0.00 0.00 0.00 0.00 0.00 0.00 0.00 0.00 0.00 0.00 0.00 0.00 0.00
0.00 0.00 0.00 0.00 0.00 0.00 0.00 0.00 0.00 0.00 0.00 0.00 0.00 0.00 0.00 0.00 0.00 0.00 0.00 0.00 0.00 0.00 0.00 0.00 0.00 0.00 0.00 0.00 0.00 0.00 0.00 0.00 0.00 0.00 0.00 0.00 0.00 0.00 0.00 0.00 0.00 0.00 0.00 0.00
0.00 0.00 0.00 0.00 0.00 0.00 0.00 0.00 0.00 0.00 0.00 0.00 0.00 0.00 0.00 0.00 0.00 0.00 0.00 0.00 0.00 0.00 0.00 0.00 0.00 0.00 0.00 0.00 0.00 0.00 0.00 0.00 0.00 0.00 0.00 0.00 0.00 0.00 0.00 0.00 0.00 0.00 0.00 0.00
0.00 0.00 0.00 0.00 0.00 0.00 0.00 0.00 0.00 0.00 0.00 0.00 0.00 0.00 0.00 0.00 0.00 0.00 0.00 0.00 0.00 0.00 0.00 0.00 0.00 0.00 0.00 0.00 0.00 0.00 0.00 0.00 0.00 0.00 0.00 0.00 0.00 0.00 0.00 0.00 0.00 0.00 0.00 0.00
0.00 0.00 0.00 0.00 0.00 0.00 0.00 0.00 0.00 0.00 0.00 0.00 0.00 0.00 0.00 0.00 0.00 0.00 0.00 0.00 0.00 0.00 0.00 0.00 0.00 0.00 0.00 0.00 0.00 0.00 0.00 0.00 0.00 0.00 0.00 0.00 0.00 0.00 0.00 0.00 0.00 0.00 0.00 0.00
0.00 0.00 0.00 0.00 0.00 0.00 0.00 0.00 0.00 0.00 0.00 0.00 0.00 0.00 0.00 0.00 0.00 0.00 0.00 0.00 0.00 0.00 0.00 0.00 0.00 0.00 0.00 0.00 0.00 0.00 0.00 0.00 0.00 0.00 0.00 0.00 0.00 0.00 0.00 0.00 0.00 0.00 0.00 0.00
0.00 0.00 0.00 0.00 0.00 0.00 0.00 0.00 0.00 0.00 0.00 0.00 0.00 0.00 0.00 0.00 0.00 0.00 0.00 0.00 0.00 0.00 0.00 0.00 0.00 0.00 0.00 0.00 0.00 0.00 0.00 0.00 0.00 0.00 0.00 0.00 0.00 0.00 0.00 0.00 0.00 0.00 0.00 0.00
0.00 0.00 0.00 0.00 0.00 0.00 0.00 0.00 0.00 0.00 0.00 0.00 0.00 0.00 0.00 0.00 0.00 0.00 0.00 0.00 0.00 0.00 0.00 0.00 0.00 0.00 0.00 0.00 0.00 0.00 0.00 0.00 0.00 0.00 0.00 0.00 0.00 0.00 0.00 0.00 0.00 0.00 0.00 0.00
0.00 0.00 0.00 0.00 0.00 0.00 0.00 0.00 0.00 0.00 0.00 0.00 0.00 0.00 0.00 0.00 0.00 0.00 0.00 0.00 0.00 0.00 0.00 0.00 0.00 0.00 0.00 0.00 0.00 0.00 0.00 0.00 0.00 0.00 0.00 0.00 0.00 0.00 0.00 0.00 0.00 0.00 0.00 0.00
0.00 0.00 0.00 0.00 0.00 0.00 0.00 0.00 0.00 0.00 0.00 0.00 0.00 0.00 0.00 0.00 0.00 0.00 0.00 0.00 0.00 0.00 0.00 0.00 0.00 0.00 0.00 0.00 0.00 0.00 0.00 0.00 0.00 0.00 0.00 0.00 0.00 0.00 0.00 0.00 0.00 0.00 0.00 0.00
0.00 0.00 0.00 0.00 0.00 0.00 0.00 0.00 0.00 0.00 0.00 0.00 0.00 0.00 0.00 0.00 0.00 0.00 0.00 0.00 0.00 0.00 0.00 0.00 0.00 0.00 0.00 0.00 0.00 0.00 0.00 0.00 0.00 0.00 0.00 0.00 0.00 0.00 0.00 0.00 0.00 0.00 0.00 0.00
0.00 0.00 0.00 0.00 0.00 0.00 0.00 0.00 0.00 0.00 0.00 0.00 0.00 0.00 0.00 0.00 0.00 0.00 0.00 0.00 0.00 0.00 0.00 0.00 0.00 0.00 0.00 0.00 0.00 0.00 0.00 0.00 0.00 0.00 0.00 0.00 0.00 0.00 0.00 0.00 0.00 0.00 0.00 0.00
0.00 0.00 0.00 0.00 0.00 0.00 0.00 0.00 0.00 0.00 0.00 0.00 0.00 0.00 0.00 0.00 0.00 0.00 0.00 0.00 0.00 0.00 0.00 0.00 0.00 0.00 0.00 0.00 0.00 0.00 0.00 0.00 0.00 0.00 0.00 0.00 0.00 0.00 0.00 0.00 0.00 0.00 0.00 0.00
0.00 0.00 0.00 0.00 0.00 0.00 0.00 0.00 0.00 0.00 0.00 0.00 0.00 0.00 0.00 0.00 0.00 0.00 0.00 0.00 0.00 0.00 0.00 0.00 0.00 0.00 0.00 0.00 0.00 0.00 0.00 0.00 0.00 0.00 0.00 0.00 0.00 0.00 0.00 0.00 0.00 0.00 0.00 0.00
0.00 0.00 0.00 0.00 0.00 0.00 0.00 0.00 0.00 0.00 0.00 0.00 0.00 0.00 0.00 0.00 0.00 0.00 0.00 0.00 0.00 0.00 0.00 0.00 0.00 0.00 0.00 0.00 0.00 0.00 0.00 0.00 0.00 0.00 0.00 0.00 0.00 0.00 0.00 0.00 0.00 0.00 0.00 0.00
0.00 0.00 0.00 0.00 0.00 0.00 0.00 0.00 0.00 0.00 0.00 0.00 0.00 0.00 0.00 0.00 0.00 0.00 0.00 0.00 0.00 0.00 0.00 0.00 0.00 0.00 0.00 0.00 0.00 0.00 0.00 0.00 0.00 0.00 0.00 0.00 0.00 0.00 0.00 0.00 0.00 0.00 0.00 0.00
0.00 0.00 0.00 0.00 0.00 0.00 0.00 0.00 0.00 0.00 0.00 0.00 0.00 0.00 0.00 0.00 0.00 0.00 0.00 0.00 0.00 0.00 0.00 0.00 0.00 0.00 0.00 0.00 0.00 0.00 0.00 0.00 0.00 0.00 0.00 0.00 0.00 0.00 0.00 0.00 0.00 0.00 0.00 0.00
0.00 0.00 0.00 0.00 0.00 0.00 0.00 0.00 0.00 0.00 0.00 0.00 0.00 0.00 0.00 0.00 0.00 0.00 0.00 0.00 0.00 0.00 0.00 0.00 0.00 0.00 0.00 0.00 0.00 0.00 0.00 0.00 0.00 0.00 0.00 0.00 0.00 0.00 0.00 0.00 0.00 0.00 0.00 0.00
0.00 0.00 0.00 0.00 0.00 0.00 0.00 0.00 0.00 0.00 0.00 0.00 0.00 0.00 0.00 0.00 0.00 0.00 0.00 0.00 0.00 0.00 0.00 0.00 0.00 0.00 0.00 0.00 0.00 0.00 0.00 0.00 0.00 0.00 0.00 0.00 0.00 0.00 0.00 0.00 0.00 0.00 0.00 0.00
0.00 0.00 0.00 0.00 0.00 0.00 0.00 0.00 0.00 0.00 0.00 0.00 0.00 0.00 0.00 0.00 0.00 0.00 0.00 0.00 0.00 0.00 0.00 0.00 0.00 0.00 0.00 0.00 0.00 0.00 0.00 0.00 0.00 0.00 0.00 0.00 0.00 0.00 0.00 0.00 0.00 0.00 0.00 0.00
0.00 0.00 0.00 0.00 0.00 0.00 0.00 0.00 0.00 0.00 0.00 0.00 0.00 0.00 0.00 0.00 0.00 0.00 0.00 0.00 0.00 0.00 0.00 0.00 0.00 0.00 0.00 0.00 0.00 0.00 0.00 0.00 0.00 0.00 0.00 0.00 0.00 0.00 0.00 0.00 0.00 0.00 0.00 0.00
0.00 0.00 0.00 0.00 0.00 0.00 0.00 0.00 0.00 0.00 0.00 0.00 0.00 0.00 0.00 0.00 0.00 0.00 0.00 0.00 0.00 0.00 0.00 0.00 0.00 0.00 0.00 0.00 0.00 0.00 0.00 0.00 0.00 0.00 0.00 0.00 0.00 0.00 0.00 0.00 0.00 0.00 0.00 0.00
0.00 0.00 0.00 0.00 0.00 0.00 0.00 0.00 0.00 0.00 0.00 0.00 0.00 0.00 0.00 0.00 0.00 0.00 0.00 0.00 0.00 0.00 0.00 0.00 0.00 0.00 0.00 0.00 0.00 0.00 0.00 0.00 0.00 0.00 0.00 0.00 0.00 0.00 0.00 0.00 0.00 0.00 0.00 0.00
0.00 0.00 0.00 0.00 0.00 0.00 0.00 0.00 0.00 0.00 0.00 0.00 0.00 0.00 0.00 0.00 0.00 0.00 0.00 0.00 0.00 0.00 0.00 0.00 0.00 0.00 0.00 0.00 0.00 0.00 0.00 0.00 0.00 0.00 0.00 0.00 0.00 0.00 0.00 0.00 0.00 0.00 0.00 0.00
0.00 0.00 0.00 0.00 0.00 0.00 0.00 0.00 0.00 0.00 0.00 0.00 0.00 0.00 0.00 0.00 0.00 0.00 0.00 0.00 0.00 0.00 0.00 0.00 0.00 0.00 0.00 0.00 0.00 0.00 0.00 0.00 0.00 0.00 0.00 0.00 0.00 0.00 0.00 0.00 0.00 0.00 0.00 0.00
MSLP
1014.34 1014.06 1014.30 1014.76 1015.62 1016.65 1017.99 1019.15 1020.40 1021.81 1023.05 1023.95 1024.71 1025.73 1026.78 1027.45 1027.99 1028.47 1028.59 1028.37 1028.39 1028.43 1028.03 1027.33 1026.66 1025.86 1025.10 1024.11 1022.96 1021.99 1021.13 1020.19 1019.30 1018.52 1018.01 1017.35 1016.38 1015.56 1013.88 1012.93 1011.54 1009.89 1008.33 1007.46
1014.84 1014.93 1015.04 1015.81 1016.34 1017.16 1018.27 1019.31 1020.56 1021.81 1023.03 1023.23 1024.05 1025.35 1026.63 1027.28 1027.88 1028.30 1028.58 1028.60 1028.36 1028.32 1028.21 1027.55 1026.99 1026.35 1025.61 1024.45 1023.50 1022.59 1021.86 1020.96 1020.07 1019.14 1018.25 1017.80 1016.86 1015.95 1014.85 1013.50 1012.23 1011.23 1010.21 1009.30
1015.49 1015.51 1016.14 1017.12 1017.09 1017.46 1018.65 1019.63 1020.60 1022.00 1022.32 1022.99 1024.19 1025.47 1026.47 1027.10 1027.79 1028.54 1028.84 1028.74 1028.56 1028.57 1028.48 1028.03 1027.57 1027.02 1026.22 1025.12 1024.07 1023.11 1022.49 1021.75 1020.76 1019.90 1019.13 1018.18 1017.41 1016.53 1015.46 1014.88 1013.88 1012.90 1012.46 1011.08
1016.09 1016.39 1017.10 1017.17 1017.14 1017.69 1018.91 1020.34 1021.02 1021.72 1022.53 1023.45 1024.62 1025.86 1026.46 1027.13 1027.90 1028.81 1028.98 1028.94 1028.89 1028.95 1028.84 1028.52 1028.19 1027.54 1026.87 1025.94 1024.79 1023.88 1023.07 1022.33 1021.64 1020.84 1020.20 1019.44 1018.51 1018.06 1017.27 1016.53 1015.37 1014.83 1014.72 1013.05
1016.36 1016.68 1017.43 1017.39 1017.61 1018.34 1018.85 1020.94 1021.41 1021.99 1023.00 1024.14 1025.17 1025.81 1027.04 1027.75 1028.29 1028.95 1029.17 1029.16 1029.08 1029.11 1029.10 1028.96 1028.65 1028.08 1027.41 1026.52 1025.48 1024.57 1023.83 1023.23 1022.51 1021.65 1021.10 1020.40 1019.63 1019.47 1018.91 1018.56 1018.24 1017.36 1016.35 1015.04
1016.41 1016.83 1017.05 1016.81 1017.08 1017.86 1018.62 1020.49 1021.24 1021.96 1022.99 1024.23 1025.20 1025.99 1027.24 1028.07 1028.59 1029.08 1029.33 1029.32 1029.32 1029.38 1029.45 1029.48 1029.21 1028.67 1027.98 1027.11 1026.32 1025.56 1024.87 1024.17 1023.38 1022.57 1022.12 1021.62 1021.21 1020.84 1020.32 1019.57 1018.90 1018.27 1016.82 1014.84
1016.56 1017.19 1017.29 1017.17 1017.41 1017.94 1019.64 1020.90 1021.08 1021.96 1022.97 1024.06 1025.07 1025.65 1027.01 1028.18 1028.85 1029.26 1029.54 1029.67 1029.78 1029.78 1029.91 1029.96 1029.71 1029.26 1028.56 1027.78 1027.01 1026.48 1025.76 1024.96 1024.17 1023.52 1022.89 1022.60 1022.36 1022.28 1021.51 1020.64 1019.75 1017.68 1016.89 1016.28
1017.22 1017.94 1018.08 1017.51 1018.19 1018.75 1019.94 1020.83 1021.58 1022.35 1023.26 1024.19 1025.12 1026.31 1027.25 1028.24 1028.92 1029.52 1029.94 1030.12 1030.20 1030.23 1030.24 1030.14 1029.96 1029.65 1029.19 1028.48 1027.71 1027.07 1026.50 1025.72 1024.94 1024.29 1023.80 1023.40 1023.05 1022.05 1020.88 1019.34 1018.02 1017.34 1017.49 1017.22
1017.67 1017.93 1018.08 1018.23 1018.48 1019.12 1019.92 1020.88 1021.96 1022.53 1023.42 1024.16 1025.21 1026.39 1027.35 1028.32 1029.15 1029.88 1030.38 1030.71 1030.66 1030.66 1030.73 1030.52 1030.22 1030.06 1029.75 1029.27 1028.58 1027.88 1027.12 1026.31 1025.58 1024.76 1024.06 1023.45 1022.86 1022.21 1021.44 1021.04 1020.89 1020.58 1020.01 1019.20
1017.73 1019.11 1019.10 1019.22 1019.57 1019.96 1020.59 1021.28 1022.02 1022.70 1023.51 1024.37 1025.43 1026.43 1027.47 1028.46 1029.34 1030.15 1030.73 1031.17 1031.07 1031.15 1031.25 1031.08 1030.69 1030.27 1030.12 1029.70 1029.02 1028.59 1028.10 1027.41 1026.69 1026.02 1025.28 1024.54 1024.03 1024.19 1023.91 1022.96 1022.19 1021.46 1020.53 1021.00
1018.72 1019.67 1020.01 1020.32 1020.43 1020.81 1021.38 1021.95 1022.65 1023.18 1023.82 1024.68 1025.54 1026.73 1027.49 1028.52 1029.38 1030.20 1030.80 1031.17 1031.31 1031.51 1031.58 1031.50 1031.19 1030.72 1030.25 1029.79 1029.27 1028.90 1028.60 1028.38 1027.89 1027.23 1026.66 1025.96 1025.31 1024.54 1024.25 1024.08 1023.85 1023.60 1023.05 1022.92
1017.57 1018.23 1019.04 1020.25 1020.85 1021.23 1021.89 1022.61 1023.19 1023.78 1024.66 1025.31 1025.88 1026.96 1027.80 1028.73 1029.43 1030.13 1030.76 1031.22 1031.54 1031.80 1031.95 1031.91 1031.63 1031.19 1030.67 1030.12 1029.65 1029.36 1029.16 1028.81 1028.48 1028.04 1027.69 1027.27 1026.87 1026.20 1025.41 1025.19 1024.55 1023.85 1023.38 1023.04
1016.44 1017.88 1018.74 1019.84 1020.76 1021.42 1022.19 1022.81 1023.51 1024.24 1024.95 1025.80 1026.66 1027.29 1028.12 1028.99 1029.63 1030.18 1030.84 1031.36 1031.82 1032.18 1032.25 1032.22 1032.06 1031.77 1031.12 1030.59 1030.08 1029.83 1029.74 1029.43 1029.17 1028.84 1028.50 1028.23 1027.77 1027.22 1026.81 1026.17 1025.85 1025.29 1024.66 1024.17
1016.67 1018.02 1019.85 1020.23 1020.99 1021.72 1022.46 1023.28 1024.05 1024.82 1025.51 1026.18 1027.00 1027.79 1028.50 1029.30 1030.03 1030.52 1031.08 1031.56 1031.93 1032.24 1032.42 1032.39 1032.39 1032.12 1031.42 1030.83 1030.41 1030.13 1029.89 1029.73 1029.66 1029.50 1029.30 1029.05 1028.59 1028.31 1027.93 1027.49 1026.95 1026.64 1026.42 1026.19
1017.73 1017.91 1018.77 1020.12 1021.19 1022.17 1023.01 1023.86 1024.77 1025.56 1026.16 1026.91 1027.48 1028.16 1028.88 1029.68 1030.39 1031.04 1031.44 1031.77 1032.01 1032.50 1032.78 1032.76 1032.72 1032.47 1031.83 1031.29 1030.91 1030.62 1030.22 1030.01 1029.76 1029.56 1029.33 1029.11 1028.90 1028.72 1028.46 1028.25 1028.27 1028.14 1027.66 1027.37
1018.25 1018.77 1019.62 1020.50 1021.53 1022.55 1023.41 1024.24 1025.02 1025.93 1026.53 1027.28 1027.95 1028.65 1029.29 1029.99 1030.74 1031.38 1031.82 1032.11 1032.52 1033.04 1033.20 1033.22 1033.14 1032.72 1032.22 1031.73 1031.27 1030.94 1030.69 1030.47 1030.19 1029.97 1029.73 1029.45 1029.16 1029.00 1028.87 1028.78 1028.66 1028.59 1028.59 1028.38
1018.65 1019.78 1020.36 1021.07 1021.78 1022.63 1023.44 1024.28 1025.05 1025.85 1026.67 1027.47 1028.28 1029.06 1029.78 1030.50 1031.18 1031.79 1032.25 1032.54 1033.00 1033.49 1033.28 1033.24 1033.23 1032.83 1032.48 1032.18 1031.61 1031.25 1030.94 1030.77 1030.61 1030.44 1030.30 1030.11 1029.96 1029.79 1029.59 1029.42 1029.28 1029.09 1028.84 1028.68
1018.49 1019.28 1019.93 1020.72 1021.66 1022.66 1023.63 1024.46 1025.28 1026.04 1026.88 1027.70 1028.54 1029.46 1030.36 1030.91 1031.59 1032.20 1032.61 1033.02 1033.39 1033.65 1033.33 1033.08 1032.99 1032.89 1032.69 1032.15 1031.62 1031.34 1031.19 1031.12 1031.02 1030.99 1030.83 1030.80 1030.64 1030.49 1030.38 1030.23 1030.12 1029.88 1029.56 1029.19
1019.05 1019.90 1020.63 1021.40 1022.15 1023.01 1023.88 1024.89 1025.65 1026.29 1027.34 1028.30 1029.30 1030.15 1030.65 1031.28 1031.92 1032.49 1032.92 1033.27 1033.56 1033.82 1033.31 1032.86 1032.37 1032.45 1032.51 1032.03 1031.53 1031.49 1031.47 1031.49 1031.50 1031.51 1031.41 1031.40 1031.45 1031.31 1031.23 1031.14 1031.04 1030.80 1030.49 1030.33
1019.69 1020.36 1021.11 1021.94 1022.72 1023.48 1024.57 1025.64 1026.23 1027.26 1027.98 1028.82 1029.84 1030.94 1031.80 1032.07 1032.32 1032.75 1033.10 1033.30 1033.16 1032.96 1032.63 1032.68 1032.56 1032.22 1032.04 1031.85 1032.16 1031.80 1031.88 1031.96 1031.98 1032.08 1032.08 1032.16 1032.34 1032.46 1032.01 1031.70 1031.54 1031.46 1031.26 1030.96
1020.29 1020.99 1021.77 1022.52 1023.40 1024.17 1024.85 1025.91 1026.85 1027.87 1028.65 1029.12 1029.85 1030.73 1031.38 1031.91 1032.45 1032.81 1033.31 1033.19 1032.26 1032.16 1032.30 1032.36 1032.19 1032.01 1031.86 1032.08 1031.78 1031.93 1032.12 1032.26 1032.37 1032.54 1032.70 1032.89 1032.85 1032.72 1032.54 1032.39 1032.12 1031.86 1031.72 1031.52
1021.12 1021.83 1022.54 1023.22 1024.07 1025.08 1025.72 1026.35 1027.03 1027.91 1028.80 1029.50 1029.99 1030.65 1031.44 1031.97 1032.17 1032.35 1032.17 1031.86 1031.29 1031.58 1031.86 1031.97 1031.94 1032.14 1031.93 1032.35 1031.69 1032.09 1032.28 1032.39 1032.44 1032.45 1032.60 1032.74 1032.87 1033.03 1032.79 1032.52 1032.36 1032.03 1031.90 1031.70
1021.80 1022.38 1023.14 1023.94 1024.56 1025.32 1026.28 1026.90 1027.46 1027.93 1028.66 1029.25 1029.89 1030.40 1030.77 1030.78 1031.03 1031.62 1031.41 1030.85 1031.16 1031.45 1031.71 1031.78 1031.90 1032.21 1032.25 1032.60 1032.47 1032.35 1032.36 1032.49 1032.58 1032.60 1032.59 1032.61 1032.64 1032.65 1032.56 1032.41 1032.24 1032.11 1031.95 1031.76
1022.49 1023.09 1023.71 1024.47 1025.04 1025.76 1026.65 1027.16 1027.60 1027.97 1028.31 1028.77 1029.31 1029.66 1029.97 1030.32 1030.44 1030.31 1030.28 1030.19 1030.43 1030.98 1031.41 1031.63 1031.99 1031.85 1032.13 1032.78 1032.70 1032.50 1032.44 1032.48 1032.50 1032.48 1032.45 1032.45 1032.45 1032.40 1032.34 1032.22 1032.11 1031.99 1031.84 1031.67
1022.80 1023.55 1024.12 1024.65 1025.11 1025.65 1026.14 1026.76 1027.57 1027.96 1028.29 1028.69 1028.88 1029.15 1029.39 1029.45 1029.54 1029.44 1029.50 1029.76 1030.02 1030.48 1031.00 1031.27 1031.44 1031.48 1032.19 1032.75 1032.43 1032.23 1032.21 1032.19 1032.23 1032.16 1032.06 1032.03 1032.05 1032.00 1031.89 1031.78 1031.69 1031.61 1031.61 1031.10
1023.13 1023.58 1023.91 1024.24 1024.67 1025.27 1025.77 1026.45 1027.05 1027.53 1027.88 1028.25 1028.35 1028.43 1028.57 1028.78 1028.97 1029.22 1029.36 1029.54 1029.86 1030.16 1030.50 1031.04 1031.12 1031.25 1031.61 1031.81 1031.80 1031.66 1031.74 1031.74 1031.72 1031.37 1031.17 1031.24 1031.37 1031.35 1031.26 1030.92 1030.78 1030.64 1030.45 1030.38
1023.20 1023.47 1023.94 1024.35 1024.61 1024.91 1025.23 1025.66 1026.31 1026.77 1027.11 1027.37 1027.57 1027.69 1027.88 1028.12 1028.37 1028.63 1028.89 1029.13 1029.36 1029.64 1029.94 1030.30 1030.42 1030.44 1030.35 1030.44 1030.64 1030.49 1030.54 1030.61 1030.69 1030.48 1030.42 1030.36 1030.43 1030.28 1030.07 1029.86 1029.68 1029.61 1029.62 1029.47
Thickness
5514 5521 5520 5522 5517 5511 5509 5501 5490 5461 5458 5451 5431 5421 5402 5398 5398 5395 5392 5394 5387 5381 5382 5385 5386 5387 5387 5390 5392 5392 5391 5392 5393 5392 5387 5384 5390 5395 5402 5415 5427 5444 5461 5474
5504 5510 5507 5510 5509 5506 5502 5494 5474 5460 5452 5456 5449 5428 5415 5410 5397 5391 5387 5384 5385 5381 5377 5378 5378 5379 5379 5384 5385 5386 5384 5384 5384 5386 5388 5385 5386 5393 5401 5413 5426 5435 5443 5453
5492 5500 5491 5472 5484 5497 5485 5477 5473 5460 5453 5447 5442 5426 5410 5403 5395 5384 5378 5377 5376 5372 5368 5368 5367 5367 5368 5373 5377 5380 5378 5377 5378 5378 5377 5381 5384 5387 5392 5398 5410 5421 5423 5437
5471 5485 5469 5475 5483 5484 5464 5453 5452 5447 5440 5439 5422 5407 5401 5391 5381 5372 5368 5366 5363 5359 5355 5356 5354 5355 5355 5359 5365 5370 5372 5372 5371 5373 5371 5373 5375 5376 5379 5383 5393 5400 5402 5418
5468 5479 5468 5481 5478 5467 5473 5448 5445 5440 5433 5418 5409 5403 5391 5380 5372 5363 5359 5356 5355 5351 5347 5345 5343 5343 5344 5346 5353 5359 5361 5362 5362 5365 5367 5368 5368 5364 5366 5365 5365 5371 5383 5401
5464 5478 5478 5483 5483 5478 5474 5438 5445 5440 5430 5417 5408 5406 5380 5371 5363 5356 5351 5349 5345 5341 5336 5333 5331 5331 5332 5335 5338 5342 5345 5348 5353 5355 5355 5357 5356 5354 5355 5357 5361 5369 5386 5408
5463 5467 5469 5479 5477 5476 5457 5444 5440 5431 5417 5407 5395 5392 5373 5362 5354 5347 5341 5337 5333 5329 5323 5321 5319 5319 5320 5323 5325 5327 5331 5335 5339 5342 5343 5342 5342 5341 5344 5350 5356 5374 5381 5388
5455 5455 5463 5477 5469 5463 5436 5432 5426 5418 5409 5398 5390 5375 5365 5354 5346 5338 5330 5325 5322 5318 5314 5311 5309 5308 5307 5310 5313 5315 5317 5321 5326 5328 5330 5329 5330 5337 5350 5363 5373 5377 5373 5374
5453 5448 5448 5450 5454 5442 5437 5427 5417 5411 5402 5394 5383 5367 5357 5345 5335 5327 5319 5312 5311 5308 5306 5304 5301 5298 5296 5295 5296 5297 5303 5309 5314 5320 5323 5327 5330 5333 5337 5341 5342 5344 5347 5355
5446 5435 5436 5437 5436 5433 5427 5420 5412 5405 5395 5386 5373 5361 5349 5338 5328 5318 5308 5303 5300 5299 5295 5294 5294 5293 5289 5287 5287 5284 5283 5288 5294 5299 5305 5311 5313 5311 5311 5318 5323 5330 5341 5339
5429 5425 5424 5424 5423 5419 5413 5407 5399 5392 5384 5375 5365 5352 5344 5333 5323 5314 5307 5302 5297 5292 5289 5287 5288 5288 5286 5284 5283 5280 5275 5269 5270 5277 5281 5288 5293 5299 5301 5302 5304 5305 5310 5311
5431 5435 5428 5420 5413 5410 5403 5395 5387 5379 5369 5362 5355 5344 5336 5326 5320 5312 5305 5300 5295 5291 5287 5283 5282 5281 5281 5280 5279 5275 5272 5269 5263 5261 5261 5264 5267 5272 5277 5280 5287 5292 5296 5297
5438 5436 5428 5417 5411 5405 5395 5387 5379 5370 5362 5352 5344 5338 5330 5321 5315 5310 5303 5297 5290 5283 5281 5276 5272 5273 5274 5274 5275 5271 5266 5264 5260 5257 5254 5250 5250 5253 5252 5256 5259 5263 5269 5274
5438 5428 5412 5411 5400 5397 5387 5378 5369 5359 5352 5345 5338 5331 5325 5317 5310 5305 5298 5293 5288 5283 5279 5275 5272 5268 5268 5269 5268 5266 5263 5260 5255 5251 5246 5244 5241 5237 5232 5234 5238 5238 5239 5239
5425 5422 5417 5405 5394 5385 5375 5366 5357 5349 5344 5337 5333 5327 5321 5313 5306 5299 5294 5291 5286 5281 5276 5272 5269 5265 5265 5265 5264 5261 5260 5256 5253 5251 5248 5245 5240 5236 5232 5228 5224 5220 5220 5222
5414 5412 5407 5398 5388 5376 5366 5359 5352 5345 5341 5334 5328 5322 5317 5310 5303 5297 5292 5289 5284 5276 5272 5265 5266 5263 5263 5262 5261 5259 5255 5253 5250 5248 5245 5243 5241 5238 5234 5229 5224 5218 5213 5208
5405 5398 5394 5388 5379 5372 5365 5358 5353 5347 5340 5333 5326 5319 5313 5307 5301 5295 5289 5285 5278 5271 5268 5266 5262 5263 5262 5260 5257 5254 5252 5249 5245 5242 5238 5235 5231 5228 5225 5221 5218 5215 5210 5204
5406 5400 5394 5388 5379 5370 5362 5356 5351 5345 5339 5330 5324 5314 5306 5302 5299 5291 5285 5280 5274 5269 5266 5265 5263 5263 5260 5258 5256 5252 5248 5243 5240 5235 5231 5226 5222 5218 5213 5210 5206 5202 5197 5196
5397 5389 5382 5378 5371 5365 5359 5354 5348 5342 5331 5320 5313 5308 5302 5296 5291 5283 5275 5270 5266 5263 5265 5265 5264 5260 5256 5253 5250 5246 5242 5236 5232 5227 5222 5217 5210 5207 5201 5195 5191 5186 5183 5179
5387 5383 5377 5370 5364 5359 5348 5338 5334 5327 5319 5314 5305 5297 5291 5284 5281 5277 5271 5271 5270 5269 5267 5263 5260 5257 5253 5248 5244 5240 5234 5227 5223 5216 5210 5205 5197 5191 5188 5185 5180 5174 5167 5164
5377 5372 5365 5359 5349 5345 5343 5334 5327 5319 5311 5309 5307 5300 5295 5286 5276 5274 5269 5272 5273 5270 5265 5261 5258 5253 5248 5242 5238 5232 5225 5218 5212 5206 5199 5192 5185 5181 5175 5169 5165 5159 5153 5148
5360 5358 5351 5346 5344 5332 5327 5326 5322 5315 5308 5301 5293 5291 5284 5279 5272 5270 5273 5275 5276 5269 5263 5258 5253 5248 5243 5237 5231 5225 5220 5212 5205 5198 5191 5183 5176 5169 5164 5157 5152 5146 5139 5134
5353 5350 5343 5337 5335 5329 5318 5316 5311 5311 5305 5300 5295 5290 5288 5288 5283 5275 5273 5275 5270 5263 5258 5253 5248 5242 5236 5230 5223 5216 5210 5201 5194 5187 5180 5173 5166 5158 5151 5145 5139 5132 5125 5120
5341 5338 5332 5327 5324 5321 5315 5308 5305 5303 5299 5296 5292 5290 5287 5278 5275 5278 5275 5271 5267 5260 5253 5248 5242 5235 5229 5222 5214 5206 5199 5192 5184 5177 5169 5162 5154 5146 5139 5131 5125 5119 5112 5105
5335 5329 5324 5321 5320 5316 5312 5305 5299 5296 5293 5292 5289 5286 5282 5281 5276 5275 5270 5265 5260 5253 5247 5241 5235 5229 5221 5213 5205 5198 5191 5183 5175 5166 5158 5150 5142 5134 5126 5118 5111 5104 5097 5091
5326 5325 5322 5318 5316 5310 5307 5302 5298 5293 5290 5285 5283 5280 5277 5274 5271 5266 5262 5257 5252 5246 5240 5234 5227 5220 5212 5204 5197 5190 5183 5175 5166 5158 5150 5141 5131 5122 5114 5106 5098 5090 5082 5076
5317 5316 5313 5309 5308 5307 5304 5301 5295 5290 5287 5283 5281 5276 5273 5267 5263 5258 5253 5249 5244 5238 5233 5227 5220 5212 5205 5197 5189 5181 5173 5165 5157 5149 5139 5130 5120 5112 5103 5093 5085 5076 5068 5060